Total_Precipitation_Accumulation
0.02 0.04 0.09 0.11 0.13 0.15 0.18 0.22 0.28 0.25 0.23 0.30 0.39 0.59 0.83 0.97 1.16 1.32 1.30 1.29 1.37 1.45 1.73 1.95 2.14 2.35 2.60 2.82 2.97 3.21 3.47 3.86 4.15 4.51 4.81 5.03 5.21 5.43 5.47 5.38 5.31 5.29 5.27 5.38
0.05 0.06 0.07 0.09 0.09 0.10 0.13 0.18 0.26 0.28 0.27 0.29 0.42 0.62 0.84 0.96 1.10 1.29 1.37 1.44 1.44 1.52 1.71 2.08 2.41 2.85 3.08 3.21 3.28 3.50 3.84 4.16 4.36 4.74 5.25 5.72 5.90 6.01 6.00 5.96 6.07 6.10 6.11 6.26
0.07 0.07 0.07 0.06 0.07 0.07 0.10 0.15 0.18 0.26 0.32 0.37 0.54 0.93 1.14 1.13 1.27 1.40 1.42 1.58 1.60 1.66 1.94 2.21 2.59 2.92 3.06 3.19 3.32 3.49 3.97 4.42 4.88 5.34 5.92 6.39 6.67 6.67 6.51 6.19 6.27 6.38 6.23 6.33
0.07 0.06 0.05 0.06 0.06 0.07 0.10 0.12 0.14 0.21 0.34 0.47 0.53 1.12 1.52 1.59 1.62 1.53 1.52 1.60 1.59 1.63 1.90 2.24 2.48 2.78 2.93 3.06 3.31 3.52 3.95 4.65 5.17 5.49 6.13 6.76 7.00 7.18 7.23 6.98 6.65 6.45 6.20 6.08
0.06 0.06 0.07 0.08 0.08 0.08 0.10 0.10 0.16 0.19 0.27 0.44 0.48 0.93 1.68 1.83 1.95 1.76 1.67 1.68 1.53 1.50 1.70 2.05 2.23 2.51 2.84 2.97 3.08 3.32 3.89 4.55 5.28 5.88 6.37 6.96 7.43 7.62 7.54 7.09 6.64 6.11 5.76 5.31
0.06 0.06 0.06 0.06 0.06 0.06 0.09 0.13 0.23 0.27 0.38 0.65 0.61 0.91 1.79 2.10 2.25 2.28 1.95 1.73 1.55 1.45 1.54 1.70 1.88 2.18 2.54 2.65 2.89 3.19 3.63 4.36 5.10 5.67 6.21 6.69 7.09 7.20 6.88 6.34 5.81 5.46 5.06 4.51
0.12 0.09 0.06 0.05 0.07 0.08 0.11 0.25 0.56 0.77 0.87 0.88 0.69 1.00 1.80 1.99 1.84 1.87 1.92 1.95 1.71 1.42 1.42 1.65 1.79 2.08 2.32 2.43 2.70 3.05 3.59 4.24 4.66 5.13 5.63 5.95 6.15 6.27 6.23 5.89 5.40 5.01 4.53 4.06
0.23 0.20 0.09 0.05 0.09 0.12 0.12 0.26 0.70 0.98 1.00 1.02 1.03 1.49 2.11 1.96 1.60 1.55 1.68 1.79 1.62 1.52 1.56 1.79 1.95 2.16 2.37 2.44 2.61 2.93 3.38 3.83 4.06 4.26 4.68 5.03 5.15 5.18 5.04 4.80 4.39 4.08 3.74 3.43
0.27 0.27 0.12 0.07 0.08 0.09 0.16 0.23 0.37 0.53 0.63 0.99 1.48 2.01 2.57 2.39 1.78 1.54 1.58 1.59 1.58 1.59 1.64 1.84 2.01 2.14 2.29 2.35 2.51 2.67 2.93 3.14 3.36 3.54 3.76 3.94 3.96 3.86 3.72 3.50 3.24 3.02 2.81 2.53
0.28 0.27 0.19 0.12 0.12 0.14 0.18 0.26 0.37 0.62 0.95 1.33 1.65 2.35 3.15 2.97 2.29 1.84 1.74 1.69 1.62 1.61 1.65 1.82 1.90 1.99 2.04 2.00 2.12 2.23 2.45 2.59 2.79 2.88 2.91 2.84 2.83 2.76 2.59 2.40 2.29 2.14 1.96 1.86
0.36 0.38 0.26 0.19 0.21 0.24 0.23 0.29 0.44 0.60 0.71 1.27 1.88 2.74 2.98 3.00 2.70 2.31 1.88 1.65 1.58 1.56 1.56 1.63 1.68 1.73 1.74 1.68 1.70 1.80 1.96 2.18 2.32 2.33 2.37 2.31 2.22 2.06 1.93 1.78 1.71 1.64 1.56 1.56
0.37 0.47 0.44 0.30 0.26 0.21 0.25 0.34 0.49 0.78 0.82 0.99 1.62 2.77 2.81 3.05 2.91 2.57 2.19 1.86 1.73 1.65 1.54 1.49 1.48 1.51 1.51 1.51 1.49 1.56 1.64 1.75 1.80 1.87 1.87 1.86 1.81 1.72 1.63 1.54 1.47 1.48 1.49 1.48
0.34 0.57 0.83 0.85 0.71 0.39 0.31 0.32 0.40 0.52 0.76 1.07 1.66 2.76 2.86 2.80 2.72 2.67 2.46 2.12 1.89 1.78 1.60 1.58 1.54 1.48 1.51 1.61 1.59 1.49 1.53 1.55 1.55 1.59 1.56 1.57 1.65 1.65 1.59 1.57 1.58 1.54 1.49 1.47
0.28 0.57 0.99 1.36 1.28 0.74 0.51 0.39 0.41 0.56 0.97 1.13 1.48 2.18 2.48 2.53 2.62 2.79 2.77 2.30 1.86 1.74 1.64 1.72 1.79 1.73 1.62 1.62 1.73 1.62 1.52 1.48 1.53 1.52 1.48 1.41 1.42 1.50 1.54 1.51 1.49 1.44 1.38 1.39
0.36 0.64 0.58 0.56 0.59 0.59 0.54 0.51 0.53 0.63 0.72 1.10 1.51 1.98 2.38 2.53 2.51 2.55 2.42 2.21 1.85 1.71 1.79 1.80 1.76 1.75 1.65 1.60 1.70 1.65 1.53 1.46 1.65 1.63 1.59 1.51 1.42 1.43 1.47 1.43 1.38 1.32 1.26 1.17
0.38 0.63 0.59 0.57 0.47 0.53 0.59 0.63 0.69 0.80 0.86 1.08 1.59 2.26 2.54 2.61 2.55 2.54 2.44 2.27 2.18 2.06 1.98 1.95 1.89 1.89 1.85 1.74 1.76 1.77 1.69 1.61 1.69 1.76 1.83 1.83 1.73 1.69 1.62 1.48 1.36 1.35 1.33 1.26
0.40 0.65 0.88 0.88 0.55 0.78 1.20 0.95 0.91 1.06 1.13 1.36 1.97 2.30 2.22 2.31 2.45 2.58 2.62 2.50 2.39 2.35 2.23 2.19 2.15 2.08 2.06 2.00 1.93 1.92 1.82 1.74 1.75 1.82 1.86 1.83 1.78 1.75 1.71 1.50 1.36 1.38 1.38 1.34
0.40 0.68 0.92 1.01 1.10 1.79 1.65 0.97 0.96 1.18 1.38 1.57 1.82 1.93 1.94 1.96 2.07 2.16 2.25 2.34 2.37 2.26 2.20 2.24 2.32 2.25 2.21 2.07 1.95 1.90 1.81 1.83 1.87 1.89 1.86 1.79 1.64 1.62 1.56 1.48 1.45 1.41 1.36 1.33
0.28 0.60 0.99 1.16 1.51 1.75 1.56 1.00 1.05 1.50 2.03 1.72 1.68 1.58 1.47 1.44 1.61 2.03 2.12 2.16 2.31 2.34 2.27 2.26 2.25 2.18 2.15 2.06 1.98 1.89 1.82 1.85 1.86 1.84 1.74 1.63 1.53 1.50 1.42 1.40 1.34 1.29 1.24 1.22
0.33 0.50 0.98 1.24 1.74 2.11 1.96 1.05 0.85 1.40 2.57 1.97 1.71 1.58 1.45 1.58 1.98 2.10 1.94 1.94 1.94 2.02 2.07 2.00 1.85 1.75 1.89 1.99 1.97 1.87 1.78 1.77 1.77 1.58 1.37 1.28 1.31 1.32 1.25 1.19 1.13 1.10 1.12 1.11
0.83 0.91 1.13 1.38 1.87 2.12 1.29 0.78 0.96 2.09 2.64 2.03 1.68 1.53 1.48 1.75 1.95 1.69 1.53 1.59 1.59 1.62 1.58 1.51 1.47 1.53 1.65 1.72 1.73 1.74 1.63 1.60 1.51 1.38 1.29 1.24 1.18 1.12 1.11 1.12 1.13 1.07 1.03 1.07
1.06 1.24 1.33 1.51 2.03 2.19 1.08 0.89 1.44 1.79 1.48 1.45 1.38 1.30 1.26 1.27 1.21 1.20 1.21 1.25 1.22 1.23 1.22 1.17 1.25 1.37 1.44 1.40 1.40 1.48 1.48 1.40 1.31 1.29 1.25 1.28 1.18 1.01 1.03 1.18 1.15 1.13 1.16 1.16
1.10 1.24 1.36 1.56 1.89 1.60 1.02 0.95 1.05 1.09 1.12 1.07 1.05 0.99 0.92 0.91 0.82 0.88 0.91 0.94 0.94 0.94 0.99 1.02 1.04 1.14 1.26 1.29 1.32 1.37 1.33 1.25 1.25 1.31 1.27 1.17 1.07 1.12 1.12 1.16 1.16 1.12 1.11 1.03
1.13 0.92 1.08 1.26 1.33 1.11 0.94 0.88 0.83 0.76 0.77 0.73 0.78 0.88 0.84 0.82 0.82 0.85 0.82 0.80 0.77 0.81 0.86 0.95 0.98 0.99 1.08 1.09 1.13 1.22 1.16 1.16 1.29 1.38 1.32 1.18 1.06 1.02 1.03 1.06 1.05 0.98 0.93 0.90
1.09 1.01 1.10 1.22 1.21 1.13 1.07 0.84 0.73 0.64 0.58 0.56 0.63 0.75 0.82 0.79 0.78 0.77 0.73 0.75 0.79 0.82 0.88 0.94 0.99 0.99 0.94 0.91 0.96 0.96 0.99 1.13 1.34 1.31 1.17 1.04 0.89 0.84 0.86 0.84 0.81 0.80 0.74 0.70
0.85 1.00 1.16 1.21 1.07 1.14 1.15 0.88 0.70 0.66 0.64 0.61 0.61 0.71 0.84 0.86 0.86 0.81 0.75 0.75 0.78 0.81 0.83 0.93 0.91 0.86 0.87 0.91 0.94 0.89 0.87 0.98 1.20 1.19 0.99 0.84 0.73 0.67 0.59 0.59 0.60 0.57 0.54 0.52